TimeEST,TemperatureF,Dew PointF,Humidity,Sea Level PressureIn,VisibilityMPH,Wind Direction,Wind SpeedMPH,Gust SpeedMPH,PrecipitationIn,Events,Conditions,WindDirDegrees,DateUTC
12:15 AM,29.1,22.5,76,30.00,10.0,East,3.5,-,N/A,,Overcast,80,2013-12-02 05:15:00
12:35 AM,29.3,23.0,77,30.00,10.0,Calm,Calm,-,N/A,,Overcast,0,2013-12-02 05:35:00
12:54 AM,28.9,22.8,78,30.00,10.0,Calm,Calm,-,N/A,,Overcast,0,2013-12-02 05:54:00
1:15 AM,28.8,23.7,81,29.99,10.0,Calm,Calm,-,N/A,,Overcast,0,2013-12-02 06:15:00
1:35 AM,28.8,23.2,80,29.98,10.0,Calm,Calm,-,N/A,,Overcast,0,2013-12-02 06:35:00
1:54 AM,28.4,23.5,82,29.98,10.0,Calm,Calm,-,N/A,,Overcast,0,2013-12-02 06:54:00
2:15 AM,28.4,23.7,83,29.98,10.0,NNE,3.5,-,N/A,,Overcast,20,2013-12-02 07:15:00
2:35 AM,28.2,23.7,83,29.98,10.0,NNE,4.6,-,N/A,,Overcast,20,2013-12-02 07:35:00
2:54 AM,28.6,23.7,82,29.98,10.0,NNE,3.5,-,N/A,,Overcast,20,2013-12-02 07:54:00
3:15 AM,28.9,23.5,80,29.97,10.0,NNE,3.5,-,N/A,,Overcast,20,2013-12-02 08:15:00
3:35 AM,28.6,23.2,80,29.97,10.0,Calm,Calm,-,N/A,,Overcast,0,2013-12-02 08:35:00
3:55 AM,28.4,23.4,81,29.97,10.0,Calm,Calm,-,N/A,,Overcast,0,2013-12-02 08:55:00
4:15 AM,28.2,23.5,83,29.96,10.0,Calm,Calm,-,N/A,,Overcast,0,2013-12-02 09:15:00
4:34 AM,28.0,23.7,84,29.96,10.0,Calm,Calm,-,N/A,,Overcast,0,2013-12-02 09:34:00
4:55 AM,28.0,23.5,83,29.95,10.0,Calm,Calm,-,N/A,,Overcast,0,2013-12-02 09:55:00
5:15 AM,28.4,23.5,82,29.95,10.0,NE,3.5,-,N/A,,Overcast,40,2013-12-02 10:15:00
5:34 AM,28.4,23.5,82,29.95,10.0,NE,4.6,-,N/A,,Overcast,50,2013-12-02 10:34:00
5:55 AM,28.8,23.4,80,29.95,10.0,NE,3.5,-,N/A,,Overcast,50,2013-12-02 10:55:00
6:15 AM,28.8,23.5,81,29.95,10.0,NE,4.6,-,N/A,,Overcast,40,2013-12-02 11:15:00
6:34 AM,28.9,22.6,77,29.95,10.0,NE,4.6,-,N/A,,Overcast,50,2013-12-02 11:34:00
6:55 AM,29.1,21.0,72,29.95,10.0,NE,5.8,-,N/A,,Overcast,50,2013-12-02 11:55:00
7:15 AM,29.1,19.6,68,29.95,10.0,NE,6.9,-,N/A,,Overcast,50,2013-12-02 12:15:00
7:34 AM,28.9,20.1,70,29.95,10.0,NE,5.8,-,N/A,,Overcast,50,2013-12-02 12:34:00
7:54 AM,28.8,20.3,71,29.95,10.0,ENE,5.8,-,N/A,,Overcast,60,2013-12-02 12:54:00
8:15 AM,28.4,20.3,72,29.95,10.0,NE,3.5,-,N/A,,Overcast,50,2013-12-02 13:15:00
8:34 AM,28.4,20.7,73,29.96,10.0,NE,4.6,-,N/A,,Overcast,40,2013-12-02 13:34:00
8:55 AM,28.4,21.2,74,29.96,10.0,NNE,5.8,-,N/A,,Overcast,30,2013-12-02 13:55:00
9:15 AM,28.6,21.7,76,29.95,10.0,NNE,5.8,-,N/A,,Overcast,30,2013-12-02 14:15:00
9:34 AM,28.4,21.4,75,29.95,10.0,NNE,5.8,-,N/A,,Overcast,30,2013-12-02 14:34:00
9:55 AM,28.4,21.4,75,29.95,10.0,NNE,6.9,-,N/A,,Overcast,30,2013-12-02 14:55:00
10:15 AM,28.8,21.2,73,29.95,10.0,NE,4.6,-,N/A,,Overcast,40,2013-12-02 15:15:00
10:34 AM,28.9,20.7,71,29.95,10.0,NE,3.5,-,N/A,,Overcast,40,2013-12-02 15:34:00
10:55 AM,29.3,20.3,69,29.94,10.0,ENE,3.5,-,N/A,,Overcast,60,2013-12-02 15:55:00
11:15 AM,29.7,19.9,67,29.94,10.0,NE,5.8,-,N/A,,Overcast,40,2013-12-02 16:15:00
11:34 AM,29.1,19.6,68,29.94,10.0,NE,4.6,-,N/A,,Scattered Clouds,50,2013-12-02 16:34:00
11:55 AM,29.7,19.2,65,29.93,10.0,North,3.5,-,N/A,,Clear,10,2013-12-02 16:55:00
12:15 PM,30.7,18.9,61,29.93,10.0,NE,3.5,-,N/A,,Clear,40,2013-12-02 17:15:00
12:34 PM,31.3,18.5,59,29.93,10.0,Calm,Calm,-,N/A,,Clear,0,2013-12-02 17:34:00
12:55 PM,31.1,18.1,59,29.93,10.0,Calm,Calm,-,N/A,,Clear,0,2013-12-02 17:55:00
1:15 PM,32.0,17.2,55,29.92,10.0,Calm,Calm,-,N/A,,Clear,0,2013-12-02 18:15:00
1:34 PM,31.8,19.0,59,29.92,10.0,NNE,3.5,-,N/A,,Clear,20,2013-12-02 18:34:00
1:55 PM,31.3,19.4,61,29.92,10.0,Calm,Calm,-,N/A,,Clear,0,2013-12-02 18:55:00
2:15 PM,30.7,19.0,62,29.91,10.0,Calm,Calm,-,N/A,,Clear,0,2013-12-02 19:15:00
2:34 PM,32.2,19.4,59,29.91,10.0,Calm,Calm,-,N/A,,Clear,0,2013-12-02 19:34:00
2:55 PM,32.0,19.2,59,29.91,10.0,North,3.5,-,N/A,,Clear,10,2013-12-02 19:55:00
3:15 PM,32.0,19.2,59,29.90,10.0,North,3.5,-,N/A,,Clear,360,2013-12-02 20:15:00
3:35 PM,32.0,19.8,61,29.90,10.0,Calm,Calm,-,N/A,,Clear,0,2013-12-02 20:35:00
3:55 PM,32.0,20.3,62,29.90,10.0,Calm,Calm,-,N/A,,Clear,0,2013-12-02 20:55:00
4:14 PM,32.0,20.7,63,29.90,10.0,Calm,Calm,-,N/A,,Clear,0,2013-12-02 21:14:00
4:35 PM,30.4,20.3,66,29.90,10.0,NNE,4.6,-,N/A,,Clear,20,2013-12-02 21:35:00
4:55 PM,29.1,19.9,69,29.91,10.0,NNE,5.8,-,N/A,,Clear,30,2013-12-02 21:55:00
5:14 PM,29.1,19.4,67,29.91,10.0,NE,4.6,-,N/A,,Clear,40,2013-12-02 22:14:00
5:35 PM,29.1,19.9,69,29.91,10.0,NNE,5.8,-,N/A,,Clear,30,2013-12-02 22:35:00
5:55 PM,28.0,19.8,71,29.91,10.0,NE,5.8,-,N/A,,Clear,40,2013-12-02 22:55:00
6:14 PM,28.6,19.9,70,29.91,10.0,NE,8.1,-,N/A,,Clear,40,2013-12-02 23:14:00
6:35 PM,28.6,19.6,69,29.91,10.0,NE,6.9,-,N/A,,Clear,40,2013-12-02 23:35:00
6:55 PM,28.8,20.3,71,29.91,10.0,NE,8.1,-,N/A,,Clear,40,2013-12-02 23:55:00
7:14 PM,28.6,20.3,71,29.92,10.0,NE,8.1,-,N/A,,Clear,50,2013-12-03 00:14:00
7:35 PM,28.0,20.1,72,29.93,10.0,NE,8.1,-,N/A,,Clear,40,2013-12-03 00:35:00
7:55 PM,28.2,20.3,72,29.93,10.0,NE,8.1,-,N/A,,Clear,40,2013-12-03 00:55:00
8:14 PM,28.4,20.3,72,29.92,10.0,NE,8.1,-,N/A,,Clear,50,2013-12-03 01:14:00
8:35 PM,28.2,20.8,74,29.93,10.0,NE,6.9,-,N/A,,Clear,50,2013-12-03 01:35:00
8:55 PM,28.2,21.2,75,29.93,10.0,ENE,8.1,-,N/A,,Clear,60,2013-12-03 01:55:00
9:14 PM,28.2,21.9,77,29.94,10.0,ENE,8.1,-,N/A,,Clear,60,2013-12-03 02:14:00
9:35 PM,27.5,22.1,80,29.94,10.0,ENE,8.1,-,N/A,,Clear,70,2013-12-03 02:35:00
9:55 PM,27.1,22.1,81,29.94,10.0,ENE,8.1,-,N/A,,Clear,70,2013-12-03 02:55:00
10:14 PM,27.3,22.3,81,29.95,10.0,ENE,6.9,-,N/A,,Clear,70,2013-12-03 03:14:00
10:35 PM,27.1,22.1,81,29.95,10.0,ENE,9.2,-,N/A,,Scattered Clouds,60,2013-12-03 03:35:00
10:55 PM,26.8,22.1,83,29.95,10.0,East,5.8,-,N/A,,Scattered Clouds,80,2013-12-03 03:55:00
11:14 PM,27.0,22.3,83,29.95,10.0,East,6.9,-,N/A,,Clear,80,2013-12-03 04:14:00
11:35 PM,26.6,22.1,83,29.95,10.0,ENE,9.2,-,N/A,,Clear,60,2013-12-03 04:35:00
11:55 PM,26.4,22.1,84,29.95,10.0,ENE,10.4,-,N/A,,Clear,60,2013-12-03 04:55:00